FO-29
1 24278U 96046B 12109.95124954 -.00000013 00000-0 22517-4 0 08557
2 24278 098.5812 218.3679 0350736 182.5348 177.4022 13.52981348773946
SO-33
1 25509U 98061B 12109.80804481 .00000322 00000-0 53808-4 0 2113
2 25509 031.4334 309.7029 0352162 043.7266 319.0672 14.28700483704150
RS-22
1 27939U 03042A 12110.62920926 .00000526 00000-0 10874-3 0 2797
2 27939 097.8180 314.4378 0014599 091.3100 268.9778 14.63971900457314
VO-52
1 28650U 05017B 12109.87788874 .00001225 00000-0 15685-3 0 00814
2 28650 097.6032 143.7237 0025474 234.3585 125.5246 14.82824431376186
HO-68
1 36122U 09072B 12110.38570161 -.00000044 00000-0 00000 0 0 3901
2 36122 100.3666 170.9043 0007166 242.4823 117.5558 13.16294509112654
UO-11
1 14781U 84021B 12109.91269221 .00000276 00000-0 43081-4 0 08579
2 14781 097.9607 169.9373 0008187 220.6057 139.4548 14.80383281511161
AO-16
1 20439U 90005D 12110.81574390 .00000135 00000-0 66191-4 0 4467
2 20439 098.4251 055.8374 0010894 337.7500 022.3210 14.32038695161647
LO-19
1 20442U 90005G 12109.86957818 .00000034 00000-0 28186-4 0 03845
2 20442 098.3902 058.1346 0011580 331.7114 028.3433 14.32257554161691
AO-27
1 22825U 93061C 12109.81883923 .00000082 00000-0 49185-4 0 00838
2 22825 098.5703 053.5721 0009354 093.6059 266.6203 14.29447475967991
IO-26
1 22826U 93061D 12109.97103273 .00000106 00000-0 58209-4 0 08336
2 22826 098.5648 054.1071 0009865 086.4957 273.7351 14.29719892968145
GO-32
1 25397U 98043D 12110.41535115 .00000129 00000-0 74927-4 0 7544
2 25397 098.3575 092.0316 0002210 091.2731 268.8718 14.23268739715664
NO-44
1 26931U 01043C 12110.42215376 -.00000008 00000-0 29208-4 0 203
2 26931 067.0511 271.7947 0007181 272.4027 087.6258 14.29782634550845
SO-50
1 27607U 02058C 12109.53453852 .00000556 00000-0 10461-3 0 7398
2 27607 064.5568 116.3533 0084764 260.4080 098.7441 14.72310573501180
CO-55
1 27844U 03031E 12109.56440754 .00000208 00000-0 11611-3 0 3548
2 27844 098.7042 118.8099 0010555 037.5865 322.6066 14.20995006456425
CO-57
1 27848U 03031J 12109.55769599 .00000174 00000-0 10073-3 0 3051
2 27848 098.7119 118.1092 0010633 043.5157 316.6859 14.20750099456365
AO-51
1 28375U 04025K 12110.40350743 .00000175 00000-0 65456-4 0 2443
2 28375 098.1415 078.4338 0082570 218.9219 140.6003 14.40927718410307
CP3
1 31129U 07012N 12110.48070652 .00000654 00000-0 15904-3 0 1442
2 31129 097.8806 121.7127 0099701 306.2668 052.9363 14.52995025265456
CO-65
1 32785U 08021C 12109.19093050 .00000679 00000-0 90300-4 0 02852
2 32785 097.8057 171.6513 0013539 257.2832 102.6867 14.82830206214873
PRISM
1 33493U 09002B 12110.58981340 .00002810 00000-0 34678-3 0 6210
2 33493 098.1621 249.7985 0020021 125.3434 234.9656 14.83567152175068
SOHLA-1
1 33496U 09002E 12110.90450310 .00000376 00000-0 71138-4 0 7058
2 33496 098.0983 223.0468 0005875 219.6346 140.4431 14.69922680173684
SO-67
1 35870U 09049F 12110.54185906 .00003858 00000-0 16546-3 0 8794
2 35870 097.2392 148.3535 0003270 051.8538 099.1245 15.23306610143687
TISAT-1
1 36799U 10035E 12110.59508675 .00001570 00000-0 20570-3 0 8970
2 36799 098.0648 186.5028 0014958 008.4069 351.7402 14.81740985 95817
STUDSAT
1 36801U 10035G 12109.93997813 .00004140 00000-0 50672-3 0 03782
2 36801 098.0723 186.3100 0012990 356.5669 003.5453 14.83705020095733
FO-69
1 37227U 0 12105.44363759 .00000458 00000-0 72677-4 0 01522
2 37227 071.9681 092.6102 0015230 078.5207 281.7702 14.76998202026682
FO-70
1 37380U 0 12105.43852282 .00000413 00000-0 66741-4 0 01600
2 37380 071.9714 093.1005 0015742 075.4484 284.8453 14.76752860026571
ALMASAT-1
1 38078U 12006B 12110.45470852 .00029739 00000-0 82884-3 0 1361
2 38078 069.4884 090.1278 0767796 322.0766 032.8592 14.07177861 9282
XATCOBEO
1 38082U 12006F 12110.34550888 .00068859 00000-0 17338-2 0 1729
2 38082 069.4879 089.7797 0757068 321.8220 033.1679 14.11444132 9276
NOAA-10
1 16969U 86073A 12109.58380208 .00000066 00000-0 44557-4 0 08903
2 16969 098.5865 139.6842 0013028 051.6862 308.5497 14.27542020331368
NOAA-11
1 19531U 88089A 12109.81684607 -.00000207 00000-0 -84516-4 0 08926
2 19531 098.7327 196.2216 0011775 036.7270 323.4705 14.14960831216112
NOAA-12
1 21263U 91032A 12110.85923245 .00000111 00000-0 47121-4 0 3785
2 21263 098.7309 132.7914 0014149 014.3572 345.8491 14.25489042 88223
MET-3/5
1 21655U 91056A 12109.89396188 .00000051 00000-0 10000-3 0 03887
2 21655 082.5613 194.0685 0014757 108.8816 251.3943 13.17037513994094
MET-2/21
1 22782U 93055A 12110.43926111 -.00000039 00000-0 -48223-4 0 3941
2 22782 082.5449 079.1216 0021606 320.9919 038.9677 13.83678945941041
OKEAN-4
1 23317U 94066A 12110.56268381 .00000952 00000-0 11195-3 0 8631
2 23317 082.5378 086.0040 0021143 180.3310 179.7895 14.83689486946110
NOAA-14
1 23455U 94089A 12110.80662292 .00000059 00000-0 31163-4 0 8608
2 23455 098.8255 195.0382 0010119 123.3484 236.9140 14.13890173892633
NOAA-15
1 25338U 98030A 12110.85115082 .00000202 00000-0 86274-4 0 2309
2 25338 098.6877 098.3228 0009745 280.7551 079.3007 14.25054403724550
RESURS
1 25394U 98043A 12109.96951797 .00000023 00000-0 27568-4 0 00980
2 25394 098.3169 101.3346 0002372 062.0674 298.0745 14.24282457715971
FENGYUN1
1 25730U 99025A 12110.93495564 .00001253 00000-0 74181-3 0 5869
2 25730 098.8431 070.9444 0017690 167.9001 192.2600 14.09404149666405
OKEAN-0
1 25860U 99039A 12110.48085732 .00000454 00000-0 76309-4 0 6048
2 25860 097.9300 074.3478 0001934 071.8426 288.2993 14.74153351685924
NOAA-16
1 26536U 00055A 12110.82020416 .00000090 00000-0 48747-4 0 7148
2 26536 099.1006 152.0265 0009868 246.7991 113.2624 14.12724926596792
NOAA-17
1 27453U 02032A 12110.86096082 .00000210 00000-0 90694-4 0 6758
2 27453 098.3416 140.8333 0011282 332.4343 027.6724 14.24417887510451
NOAA-18
1 28654U 05018A 12110.87456459 .00000118 00000-0 64724-4 0 1508
2 28654 099.0411 068.4959 0014074 322.4032 037.6624 14.11633952356337
NOAA-19
1 33591U 09005A 12110.86936953 .00000346 00000-0 19115-3 0 3424
2 33591 098.8606 051.3928 0013812 182.8822 177.2744 14.11324014164783
HUBBLE
1 20580U 90037B 12110.27074257 .00001525 00000-0 10000-3 0 9855
2 20580 028.4694 169.0681 0003597 152.7600 207.3227 15.02383503 5868
ISS
1 25544U 98067A 12110.91545190 .00014820 00000-0 19649-3 0 4058
2 25544 051.6451 053.9680 0008016 296.6509 170.7543 15.58471699768932
CO-58
1 28895U 05043F 12109.62011386 .00000485 00000-0 10878-3 0 01541
2 28895 097.9242 338.4866 0016995 342.5695 017.4929 14.60563486344960
FALCON
1 30776U 07006E 12110.57115020 .00003310 00000-0 21865-3 0 3279
2 30776 035.4335 274.7551 0001766 265.1735 094.8810 15.07102837281407
MAST
1 31126U 07012K 12109.97695035 .00000539 00000-0 13089-3 0 04413
2 31126 097.8765 124.5394 0093040 295.7252 063.4365 14.54106369265664
CAPE1
1 31130U 07012P 12109.75632775 .00000516 00000-0 12807-3 0 4474
2 31130 097.8860 120.7508 0100747 309.3681 049.8584 14.52866836265145
COMPASS
1 32787U 08021E 12110.33628089 .00001888 00000-0 23411-3 0 2804
2 32787 097.8057 172.9672 0014293 251.5833 108.3880 14.83755217215082
AAUSAT2
1 32788U 08021F 12110.11605791 .00001318 00000-0 16431-3 0 2707
2 32788 097.8071 173.1015 0013713 251.4872 108.4921 14.84053242215077
DO-64
1 32789U 08021G 12109.88288917 .00003324 00000-0 39180-3 0 02892
2 32789 097.8183 174.6788 0013632 249.4050 110.5709 14.85370847215072
